Location: Bishausen
(51.6334°N, 9.9631°E)
Time: 17:46:24
(UTC+00:00)

SL-16 R/B - Pass Details

Date: 23 May 2024
Orbit: 842 x 845 km, 71.0° (Epoch: 23 June)

Event Time Altitude Azimuth Distance (km) Brightness Sun altitude
Rises 01:35:03 0° 326° (NW) 3,417 5.7 -11.7°
Reaches altitude 10° 01:37:36 10° 320° (NW) 2,478 4.9 -11.4°
Maximum altitude 01:42:56 43° 250° (WSW) 1,171 2.6 -11.0°
Drops below altitude 10° 01:48:14 10° 181° (S) 2,462 4.1 -10.5°
Enters shadow 01:49:14 - 178° (S) 2,823 4.5 -10.4°
